Ostrava, Czech Republic

8:40 AM CEST on May 24, 2018 (GMT +0200)
Mosnov

Weather History for LKMT - October, 2012

Change the Weather History Date:

Wednesday, October 10, 2012

  Actual Average Record
Temperature  
Mean Temperature 42 °F -  
Max Temperature 53 °F 53 °F - ()
Min Temperature 32 °F 38 °F - ()
Degree Days  
Heating Degree Days 22    
Moisture  
Dew Point 36 °F    
Average Humidity 77    
Maximum Humidity 100    
Minimum Humidity 43    
Precipitation  
Precipitation 0.00 in 0.06 in - ()
Sea Level Pressure  
Sea Level Pressure 29.93 in    
Wind  
Wind Speed 5 mph ()    
Max Wind Speed 13 mph    
Max Gust Speed -    
Visibility 6.7 miles    
Events      
T = Trace of Precipitation, MM = Missing Value Source: Averaged Metar Reports

Daily Weather History Graph

Daily Weather History Graph

Search for Another Location

Airport or City:

Astronomy

Oct. 10, 2012 Rise Set
Actual Time 7:01 AM CEST 6:06 PM CEST
Civil Twilight 6:29 AM CEST 6:38 PM CEST
Nautical Twilight 5:52 AM CEST 7:15 PM CEST
Astronomical Twilight 5:14 AM CEST 7:53 PM CEST
Moon 12:50 AM CEST (10/10) 3:24 PM CEST (10/10)
Length of Visible Light 12h 09m
Length of Day
11h 04m
Waning Crescent, 30% of the Moon is Illuminated
Oct 10
Waning Crescent
Oct 15
New
Oct 22
First Quarter
Oct 29
Full
Nov 7
Last Quarter

Hourly Weather History & Observations

Time (CEST) Temp. Windchill Dew Point Humidity Pressure Visibility Wind Dir Wind Speed Gust Speed Precip Events Conditions
12:00 AM 44.6 °F 43.1 °F 35.6 °F 71% 29.92 in - SW 3.5 mph - N/A   Clear
12:30 AM 44.6 °F 43.1 °F 32.0 °F 61% 29.92 in - WSW 3.5 mph - N/A   Clear
1:00 AM 44.6 °F 43.1 °F 33.8 °F 66% 29.92 in - West 3.5 mph - N/A   Clear
1:30 AM 42.8 °F 41.1 °F 33.8 °F 70% 29.92 in - SSW 3.5 mph - N/A   Clear
2:00 AM 37 °F - 34 °F 84% 29.97 in 16 mi SW 6.7 mph - -   Clear
2:00 AM 37.4 °F 34.9 °F 33.8 °F 87% 29.92 in - SW 3.5 mph - N/A   Clear
2:30 AM 37.4 °F 32.8 °F 33.8 °F 87% 29.92 in 6.2 mi SW 5.8 mph - N/A   Partly Cloudy
3:00 AM 39.2 °F 35.9 °F 35.6 °F 87% 29.92 in 6.2 mi South 4.6 mph - N/A   Partly Cloudy
3:30 AM 35.6 °F 32.8 °F 33.8 °F 93% 29.92 in - SSW 3.5 mph - N/A   Clear
4:00 AM 39.2 °F 35.9 °F 35.6 °F 87% 29.92 in 6.2 mi South 4.6 mph - N/A   Partly Cloudy
4:30 AM 39.2 °F 37.0 °F 35.6 °F 87% 29.92 in - SSW 3.5 mph - N/A   Clear
5:00 AM 35.6 °F 31.7 °F 32.0 °F 87% 29.92 in - SW 4.6 mph - N/A   Clear
5:30 AM 32.0 °F 26.4 °F 30.2 °F 93% 29.95 in - WSW 5.8 mph - N/A   Clear
6:00 AM 35.6 °F 31.7 °F 33.8 °F 93% 29.95 in 6.2 mi SSW 4.6 mph - N/A   Partly Cloudy
6:30 AM 33.8 °F 28.6 °F 32.0 °F 93% 29.95 in 6.2 mi SW 5.8 mph - N/A   Mostly Cloudy
7:00 AM 33.8 °F 30.8 °F 32.0 °F 93% 29.95 in 6.2 mi SW 3.5 mph - N/A   Mostly Cloudy
7:30 AM 33.8 °F 29.6 °F 32.0 °F 93% 29.95 in 6.2 mi WSW 4.6 mph - N/A   Scattered Clouds
8:00 AM 35 °F - 33 °F 91% 30.00 in 7 mi SW 8.9 mph - -   Scattered Clouds
8:00 AM 33.8 °F 27.7 °F 33.8 °F 100% 29.95 in 6.2 mi SW 6.9 mph - N/A   Partly Cloudy
8:30 AM 37.4 °F 32.8 °F 35.6 °F 93% 29.95 in - SW 5.8 mph - N/A   Clear
9:00 AM 39.2 °F 35.9 °F 37.4 °F 93% 29.95 in - SW 4.6 mph - N/A   Clear
9:30 AM 42.8 °F 40.1 °F 39.2 °F 87% 29.95 in - SW 4.6 mph - N/A   Clear
10:00 AM 44.6 °F 41.4 °F 39.2 °F 81% 29.95 in 6.2 mi WSW 5.8 mph - N/A   Partly Cloudy
10:30 AM 46.4 °F 43.5 °F 39.2 °F 76% 29.95 in 6.2 mi SW 5.8 mph - N/A   Partly Cloudy
11:00 AM 48.2 °F - 39.2 °F 71% 29.95 in 6.2 mi SW 5.8 mph - N/A   Partly Cloudy
11:30 AM 48.2 °F - 35.6 °F 62% 29.95 in 6.2 mi WSW 4.6 mph - N/A   Partly Cloudy
12:00 PM 50.0 °F - 35.6 °F 58% 29.95 in 6.2 mi Variable 2.3 mph - N/A   Partly Cloudy
12:30 PM 51.8 °F - 35.6 °F 54% 29.95 in 6.2 mi West 4.6 mph - N/A   Scattered Clouds
1:00 PM 50.0 °F - 35.6 °F 58% 29.95 in 6.2 mi WSW 6.9 mph - N/A   Mostly Cloudy
1:30 PM 51.8 °F - 35.6 °F 54% 29.92 in 6.2 mi WSW 5.8 mph - N/A   Scattered Clouds
2:00 PM 53 °F - 37 °F 43% 29.93 in 25 mi SSW 8.9 mph - -   Partly Cloudy
2:01 PM 53.6 °F - 37.4 °F 54% 29.92 in - SSW 8.1 mph - N/A   Clear
2:30 PM 53.6 °F - 37.4 °F 54% 29.92 in 6.2 mi SW 8.1 mph - N/A   Scattered Clouds
3:00 PM 51.8 °F - 37.4 °F 58% 29.92 in 6.2 mi SW 10.4 mph - N/A   Scattered Clouds
3:30 PM 50.0 °F - 37.4 °F 62% 29.89 in 6.2 mi SW 11.5 mph - N/A   Scattered Clouds
4:00 PM 50.0 °F - 37.4 °F 62% 29.89 in 6.2 mi SSW 12.7 mph - N/A   Scattered Clouds
4:30 PM 50.0 °F - 39.2 °F 66% 29.89 in 6.2 mi SSW 10.4 mph - N/A   Scattered Clouds
5:00 PM 50.0 °F - 37.4 °F 62% 29.89 in 6.2 mi SSW 10.4 mph - N/A   Scattered Clouds
5:30 PM 48.2 °F - 39.2 °F 71% 29.92 in 6.2 mi SW 10.4 mph - N/A   Mostly Cloudy
6:00 PM 48.2 °F - 39.2 °F 71% 29.92 in 6.2 mi SW 9.2 mph - N/A   Mostly Cloudy
6:30 PM 46.4 °F 42.9 °F 39.2 °F 76% 29.92 in 6.2 mi SW 6.9 mph - N/A   Mostly Cloudy
7:00 PM 46.4 °F 42.9 °F 39.2 °F 76% 29.92 in - WSW 6.9 mph - N/A   Clear
7:30 PM 46.4 °F 42.9 °F 39.2 °F 76% 29.92 in - SW 6.9 mph - N/A   Clear
8:00 PM 44 °F - 38 °F 73% 29.95 in 9 mi SW 6.7 mph - -   Mostly Cloudy
8:00 PM 44.6 °F 40.7 °F 37.4 °F 76% 29.92 in 6.2 mi SW 6.9 mph - N/A   Mostly Cloudy
8:30 PM 44.6 °F 42.2 °F 39.2 °F 81% 29.92 in - SW 4.6 mph - N/A   Clear
9:00 PM 42.8 °F 39.3 °F 37.4 °F 81% 29.92 in - SSW 5.8 mph - N/A   Clear
9:30 PM 41.0 °F 37.1 °F 37.4 °F 87% 29.95 in - SW 5.8 mph - N/A   Clear
10:00 PM 39.2 °F 34.2 °F 35.6 °F 87% 29.95 in - SW 6.9 mph - N/A   Clear
10:30 PM 39.2 °F 35.0 °F 35.6 °F 87% 29.95 in - SW 5.8 mph - N/A   Clear
11:00 PM 41.0 °F - 35.6 °F 81% 29.95 in - Variable 2.3 mph - N/A   Clear
11:30 PM 37.4 °F 33.8 °F 33.8 °F 87% 29.95 in - SW 4.6 mph - N/A   Clear